This is the latest recevied weather packets stored in our database for station/object KT5AL. If no packets are shown the sender has not sent any weather packets the latest 1 day(s).
| Time | Temp. | Humidity | Pressure | Rain* | Wind** | Luminosity | Snow |
|---|---|---|---|---|---|---|---|
| 1778089804 | 14.44° C | 81% | 1016.5 hPa | 0 mm | - | - | - |
| 1778089507 | 13.89° C | 81% | 1016.5 hPa | 0 mm | - | - | - |
| 1778088903 | 13.33° C | 83% | 1017.1 hPa | 0 mm | - | - | - |
| 1778088606 | 13.33° C | 86% | 1017.1 hPa | 0 mm | - | - | - |
| 1778087708 | 12.78° C | 86% | 1017.8 hPa | 0 mm | - | - | - |
| 1778087405 | 12.78° C | 88% | 1017.8 hPa | 0 mm | - | - | - |
| 1778087108 | 12.22° C | 88% | 1017.8 hPa | 0 mm | - | - | - |
| 1778086805 | 12.22° C | 89% | 1017.8 hPa | 0 mm | - | - | - |
| 1778086508 | 12.22° C | 89% | 1017.8 hPa | 0 mm | - | - | - |
| 1778086205 | 12.22° C | 89% | 1017.8 hPa | 0 mm | - | - | - |
| 1778085908 | 12.22° C | 90% | 1017.8 hPa | 0 mm | - | - | - |
| 1778085605 | 12.22° C | 90% | 1017.8 hPa | 0 mm | - | - | - |
| 1778085308 | 11.67° C | 90% | 1017.5 hPa | 0 mm | - | - | - |
| 1778084406 | 11.67° C | 92% | 1017.8 hPa | 0 mm | - | - | - |
| 1778083806 | 11.67° C | 93% | 1018.5 hPa | 0 mm | - | - | - |
| 1778082908 | 11.67° C | 95% | 1017.5 hPa | 0 mm | - | - | - |
| 1778082308 | 11.67° C | 98% | 1018.5 hPa | 0 mm | - | - | - |
| 1778081405 | 11.11° C | 100% | 1019.5 hPa | 0 mm | - | - | - |
| 1778080813 | 11.11° C | 98% | 1020.5 hPa | 0 mm | - | - | - |
| 1778079906 | 11.11° C | 97% | 1019.2 hPa | 0 mm | - | - | - |
| 1778079609 | 11.11° C | 98% | 1019.2 hPa | 0 mm | - | - | - |
| 1778079306 | 11.11° C | 98% | 1017.8 hPa | 0 mm | - | - | - |
| 1778078705 | 11.11° C | 100% | 1018.5 hPa | 0 mm | - | - | - |
| 1778078408 | 11.11° C | 100% | 1018.5 hPa | 0 mm | - | - | - |
| 1778077805 | 10.56° C | 100% | 1018.5 hPa | 0 mm | - | - | - |
* Rain latest hour (hover to see other rain measurements)
** Current wind speed in m/s (hover to see current wind gust speed)